Regional Weather Roundup
Issued by NWS

Home | Current Version | Previous Version | Text Only | Print | Product List | Glossary On
Versions: 1 2 3 4 5 6 7 8 9 10 11 12 13 14 15 16 17 18 19 20 21 22 23 24 25 26 27 28 29 30 31 32 33 34 35 36 37 38 39 40 41 42 43 44 45 46 47 48 49 50
000
ASUS43 KMPX 200910
RWRMN
WEATHER ROUNDUP FOR MINNESOTA
NATIONAL WEATHER SERVICE TWIN CITIES/CHANHASSEN MN
400 AM CDT MON OCT 20 2014


NOTE: "FAIR" INDICATES FEW OR NO CLOUDS BELOW 12,000 FEET WITH NO
SIGNIFICANT WEATHER AND/OR OBSTRUCTIONS TO VISIBILITY. N/A MEANS
CURRENT SKY AND/OR WEATHER CONDITIONS ARE NOT AVAILABLE.

MNZ060>063-068>070-201000-
   Twin Cities Metro

CITY           SKY/WX    TMP DP  RH WIND       PRES   REMARKS
TWIN CITIES    PTCLDY    49  41  74 NW3       29.91S
ST PAUL        CLEAR     48  41  76 NW5       29.92R
CRYSTAL        CLEAR     50  42  74 W7        29.90R
BLAINE         CLEAR     46  43  87 W5        29.90S
LAKEVILLE      CLEAR     45  41  87 W6        29.91S
EDEN PRAIRIE   CLEAR     48  42  80 W6        29.90S
SOUTH ST PAUL  CLEAR     51  42  71 CALM      29.90S
LAKE ELMO      FAIR      46  43  87 NW6       29.91R
$$
MNZ001>005-007-008-013>017-022>024-027-028-201000-
   Northwest Minnesota

CITY           SKY/WX    TMP DP  RH WIND       PRES   REMARKS
BEMIDJI        CLEAR     34  33  96 NW6       29.93S WCI  29
HALLOCK        CLEAR     37  36  93 N7        29.99R
ROSEAU         CLEAR     39  34  81 NW5       29.96R
WARROAD        CLEAR     39  36  87 NW6       29.95R
THIEF RVR FALL CLEAR     41  37  87 N5        29.97R
CROOKSTON      CLEAR     37  34  87 N6        29.99R
FOSSTON        CLEAR     36  34  93 CALM      29.97R
DETROIT LAKES  FAIR      43  37  81 NW7         N/A
MOORHEAD       CLEAR     43  41  93 CALM      29.99R
PARK RAPIDS    CLEAR     40  37  89 NW6       29.93R
MAHNOMEN       FAIR      39  36  88 NW6       29.96R
$$
MNZ006-009>011-018-025>026-201000-
   North Central Minnesota

CITY           SKY/WX    TMP DP  RH WIND       PRES   REMARKS
BAUDETTE       CLEAR     43  40  89 NW8       29.93R
FLAG ISLAND    MOCLDY    43  39  87 NW13      29.93R
INTL FALLS     CLEAR     30  29  96 CALM      29.88S
WASKISH        CLEAR     43  39  87 CALM      29.93R
BIG FORK       CLEAR     43  39  87 CALM      29.91R
LONGVILLE      CLEAR     37  36  93 CALM      29.92R
GRAND RAPIDS   CLEAR     45  37  76 NW6       29.90R
CRANE LAKE     CLOUDY    46  43  87 CALM      29.89
ORR            PTCLDY    45  39  81 CALM      29.86R
COOK           PTCLDY    43  41  93 CALM      29.88S
WALKER         FAIR      40  37  91 W3        29.93R
$$
MNZ012-019>021-037-201000-
   Northeast Minnesota

CITY           SKY/WX    TMP DP  RH WIND       PRES   REMARKS
DULUTH         CLEAR     46  40  79 NW9       29.85R
ELY            CLOUDY    46  39  76 NW7       29.85R
HIBBING        CLEAR     38  35  89 CALM      29.88R
EVELETH        CLOUDY    45  41  87 CALM      29.88R
DULUTH HARBOR  CLEAR     48  45  87 SW3       29.87R
TWO HARBORS    CLEAR     43  30  61 CALM      29.83R
SILVER BAY     CLEAR     43  39  87 CALM      29.82R
GRAND MARAIS     N/A     50  42  74 CALM      29.82R
G MARAIS ARPRT CLOUDY    43  37  81 NW5       29.81R
$$
MNZ029>031-032-039>041-046>048-054>057-064-201000-
   West Central Minnesota

CITY           SKY/WX    TMP DP  RH WIND       PRES   REMARKS
FERGUS FALLS   CLEAR     37  32  81 N3        29.99R
WHEATON        CLEAR     43  36  75 W5        30.00S
MORRIS         CLEAR    N/A N/A N/A NW7       29.97R
ALEXANDRIA     CLEAR     45  39  79 NW6       29.97R
ELBOW LAKE     FAIR      40  36  86 NW7       29.97R
WADENA         CLEAR     43  39  87 W6        29.93F
GLENWOOD       CLEAR     45  39  81 W9        29.96R
APPLETON       CLEAR     39  36  87 W6        29.97S
BENSON         CLEAR     36  34  93 N6        29.97R
ORTONVILLE     CLEAR     48  37  66 NW7       29.98S
MADISON        CLEAR     43  37  81 W5        29.98S
WILLMAR        FAIR      39  36  87 W6        29.97S
$$
MNZ033>034-036-042>043-049>051-058-059-201000-
   Central Minnesota

CITY           SKY/WX    TMP DP  RH WIND       PRES   REMARKS
ST CLOUD       CLEAR     48  41  76 NW3       29.91S
SAUK CENTRE    FAIR      42  38  88 W3        29.95R
PAYNESVILLE    CLEAR     37  36  97 SW7       29.95R
AITKIN         CLEAR     43  37  81 CALM      29.89R
PINE RIVER     CLEAR     36  36 100 CALM      29.96R
BRAINERD       CLEAR     44  40  85 N3        29.92R
STAPLES        CLEAR     43  39  87 W7        29.92S
LONG PRAIRIE   FAIR      46  41  81 W7        29.94R
LITTLE FALLS   CLEAR     39  37  93 CALM      29.92R
LITCHFIELD     CLEAR     46  45  93 W3        29.94S
BUFFALO        CLEAR     47  42  80 CALM      29.93S
MAPLE LAKE     CLEAR     47  42  82 CALM      29.93S
$$
MNZ037-044-045-052-053-201000-
   East Central Minnesota

CITY           SKY/WX    TMP DP  RH WIND       PRES   REMARKS
PRINCETON      CLEAR     45  41  87 CALM      29.91S
MORA           CLEAR     45  39  81 NW3       29.91R
CAMBRIDGE      CLEAR     46  37  71 W3        29.89R
RUSH CITY      PTCLDY    44  40  86 W3        29.89S
MOOSE LAKE     CLEAR     45  39  81 NW7       29.86R
HINCKLEY       FAIR      46  41  81 CALM      29.89R
CLOQUET        CLEAR     45  39  81 NW7       29.87R
MCGREGOR       CLEAR     45  41  87 NW5       29.89S
$$
MNZ071>073-080-081-089-090-097-098-201000-
   Southwest Minnesota

CITY           SKY/WX    TMP DP  RH WIND       PRES   REMARKS
MONTEVIDEO     CLEAR     45  37  76 NW7       29.98S
GRANITE FALLS  CLEAR     39  35  86 CALM      29.99R
CANBY          CLEAR     46  39  76 W7        30.00R
MARSHALL       CLEAR     45  36  70 W10       29.97S
REDWOOD FALLS  CLEAR     43  37  79 W9        29.96R
OLIVIA         CLEAR     41  36  81 W3        29.95F
PIPESTONE      CLEAR     41  36  81 CALM      30.00S
WINDOM         CLEAR     41  37  87 CALM      29.98S
WORTHINGTON    CLEAR     43  36  75 NW7       30.01R
JACKSON        CLEAR     39  34  81 CALM      29.98S
TRACY          CLEAR     47  39  72 W7        29.99S
SLAYTON        CLEAR     42  37  83 CALM      30.00S
$$
MNZ065>067-074>077-082>085-091>093-201000-
   South Central Minnesota

CITY           SKY/WX    TMP DP  RH WIND       PRES   REMARKS
MANKATO        CLEAR     48  37  66 NW5       29.93F
NEW ULM        CLEAR     41  37  87 W8        29.95S
ST JAMES       CLEAR     45  37  76 W7        29.96S
FAIRMONT       CLEAR     46  36  66 NW9       29.96S
GLENCOE        PTCLDY    47  42  83 W5        29.93S
FARIBAULT      CLEAR     46  41  81 W3        29.93R
OWATONNA       CLEAR     43  39  87 W5        29.93S
WASECA         CLEAR     41  34  75 W3        29.95S
ALBERT LEA     CLEAR     48  41  76 W5        29.94R
$$
MNZ078>079-086>088-094>096-201000-
   Southeast Minnesota

CITY           SKY/WX    TMP DP  RH WIND       PRES   REMARKS
ROCHESTER      CLEAR     45  40  82 NW7       29.91R
RED WING       CLEAR     45  41  87 CALM      29.89R
STANTON        CLEAR     46  41  80 W5        29.90S
DODGE CENTER   CLEAR     46  43  87 NW7       29.91S
WINONA         CLEAR     50  43  76 NW7       29.88R
AUSTIN         CLEAR     46  41  81 NW8       29.92R
PRESTON        CLEAR     47  41  79 NW10      29.90R
$$
ABBREVIATIONS USED IN REMARKS
   TC - TEMPERATURES IN CELSIUS
  WCI - WIND CHILL INDEX
   HX - HEAT INDEX
  VSB - VISIBILITY
$$



USA.gov is the U.S. government's official web portal to all federal, state and local government web resources and services.